Location: Holcomb Observatory
(44.4922°N, 73.1654°W)
Time: 19:42:18
(UTC-04:00)

Daily predictions for brighter satellites

Satellite Brightness Start Highest point End
(mag) Time Altitude Azimuth Time Altitude Azimuth Time Altitude Azimuth
Cosmos 1812 2.8 20:20:23 10° N 20:24:17 84° W 20:28:08 10° S
Helios 1B rocket 3.9 20:23:08 10° NE 20:26:01 18° E 20:28:54 10° SE
Cosmos 1939 Rocket 3.3 20:25:26 10° SE 20:29:13 42° ENE 20:32:59 10° N
Cosmos 2297 Rocket 3.7 20:24:03 10° NW 20:29:15 38° WSW 20:34:25 10° S
Okean 2 Rocket 3.2 20:29:04 10° S 20:33:30 61° E 20:37:57 10° NNE
Cosmos 1452 Rocket 4.0 20:30:28 10° S 20:35:20 39° ESE 20:40:14 10° NE
Okean 1 3.3 20:34:34 10° N 20:38:34 73° E 20:42:31 10° SSE
ATLAS 2AS CENTAUR R/B 4.1 20:38:05 10° SSE 20:43:12 20° ESE 20:48:29 10° ENE
Cosmos 407 Rocket 3.8 20:37:58 10° NNW 20:43:21 77° WSW 20:48:39 10° SSE
Cosmos 1536 4.3 20:40:30 10° SE 20:43:28 20° E 20:46:27 10° NE
Cosmos 1190 Rocket 4.4 20:38:49 10° NNW 20:44:04 68° WSW 20:49:16 10° S
Lacrosse 5 rocket 1.3 20:42:05 10° NW 20:45:43 60° NE 20:49:00 13° ESE
Resurs 1-3 4.3 20:44:38 10° S 20:48:56 55° W 20:53:16 10° NNW
NOSS 3-1 (A) 3.4 20:43:22 10° SSW 20:49:07 78° ESE 20:55:39 10° NE
Cosmos 44 3.1 20:45:05 10° NNW 20:49:28 67° NE 20:53:33 13° SE
DELTA 2 R/B (1) 4.1 20:45:24 10° W 20:50:46 48° S 20:55:26 14° ESE
Cosmos 2322 Rocket 2.9 20:50:37 10° SSE 20:55:34 32° ESE 21:00:33 10° NE
Helios 1A 3.1 20:52:15 10° SSE 20:56:25 58° ENE 21:00:37 10° N
Cosmos 2263 Rocket 3.1 20:53:09 10° N 20:58:21 35° NE 21:02:29 15° ESE
Cosmos 676 Rocket 4.1 20:54:34 10° NNW 20:59:55 82° WSW 21:05:14 10° SSE
S3M 4.0 20:55:30 10° N 21:01:45 73° E 21:08:03 10° SSE
SL-16 R/B 2.7 20:58:51 10° S 21:03:59 37° ESE 21:09:08 10° NE
ARGOS 4.0 21:00:20 15° ESE 21:04:07 33° ENE 21:08:52 10° N
Cosmos 1553 Rocket 3.9 20:59:57 10° N 21:06:11 84° E 21:12:17 10° S
SAR-Lupe-4 4.1 21:07:31 19° SE 21:09:40 42° ENE 21:13:05 10° N
Abrixas rocket 2.6 21:08:16 10° W 21:11:32 63° NNW 21:14:49 10° ENE
Resurs 01 Rocket 3.6 21:08:48 10° SSW 21:12:40 29° W 21:16:34 10° NW
Meteor 1-13 Rocket 4.3 21:06:52 10° N 21:12:51 84° E 21:18:49 10° SSE
MINOTAUR R/B 4.2 21:11:17 10° NNW 21:14:04 89° WSW 21:15:27 26° SSE
Cosmos 2266 Rocket 4.1 21:11:10 10° SSE 21:17:00 52° E 21:22:49 10° NNE
CZ-4B DEB 2.4 21:18:18 27° SSE 21:19:43 74° ENE 21:22:37 10° N
NOSS 3-1 (C) 4.3 21:14:29 10° WSW 21:20:12 54° NW 21:26:42 10° NNE
Terra 3.8 21:18:59 12° E 21:20:43 14° ENE 21:23:11 10° NNE
SeaSat 1 3.4 21:17:08 10° NNE 21:21:55 50° WNW 21:26:39 10° SW
Atlas Centaur 2 3.7 21:16:18 10° SW 21:22:10 24° S 21:24:56 19° SSE
CZ-4C R/B 4.4 21:16:29 10° NW 21:22:43 31° WSW 21:29:25 10° S
Cosmos 1954 Rocket 4.5 21:18:29 10° NNW 21:23:44 62° WSW 21:28:44 11° S
Cosmos 1140 Rocket 3.7 21:19:02 10° NNW 21:24:15 72° WSW 21:28:44 14° S
Meteor 1-5 Rocket 4.4 21:20:23 14° SSE 21:24:40 45° E 21:29:42 10° NNE
H-2A R/B 2.9 21:22:24 21° ESE 21:24:53 32° ENE 21:29:20 10° N
Okean 1 Rocket 3.4 21:24:16 22° SSE 21:26:35 42° E 21:30:43 10° NNE
SAR-Lupe-1 4.2 21:25:13 28° SE 21:26:50 57° ENE 21:30:22 10° N
NOSS 2-3 (C) 4.3 21:22:49 10° S 21:27:06 37° ESE 21:32:00 10° NE
Cosmos 1607 4.4 21:23:08 10° NNW 21:29:26 52° NE 21:33:23 23° ESE
Meteor 2-4 Rocket 3.6 21:25:12 10° N 21:30:44 84° E 21:35:11 17° SSE
Meteor 1-29 2.8 21:27:54 10° NNE 21:31:22 78° ESE 21:33:54 17° S
Cosmos 2360 Rocket 3.2 21:30:47 24° ESE 21:31:45 25° ESE 21:36:15 10° NE
Cosmos 1980 Rocket 3.2 21:27:14 10° SW 21:32:40 49° WNW 21:38:07 10° NNE
Cosmos 44 Rocket 4.0 21:29:54 10° NW 21:34:26 46° WSW 21:37:44 18° S
Cosmos 1741 Rocket 4.0 21:29:11 10° NNW 21:34:26 77° ENE 21:37:32 25° SSE
Cosmos 2151 Rocket 4.1 21:30:16 10° SSW 21:34:36 60° W 21:38:57 10° N
Cosmos 614 Rocket 4.3 21:31:54 10° NNW 21:36:58 64° WSW 21:40:46 18° S
Cosmos 1300 Rocket 3.4 21:33:26 12° S 21:37:25 83° E 21:41:46 10° N
Tiangong 1 0.7 21:35:54 10° W 21:38:33 60° S 21:38:33 60° S
BREEZE-M DEB (TANK) 3.1 21:36:57 10° SW 21:40:15 78° SSE 21:51:12 10° ENE
MetOp-B 4.1 21:41:11 23° SSE 21:44:34 84° ENE 21:49:57 10° NNW
YAOGAN 6 4.3 21:44:08 10° SSW 21:47:17 29° W 21:50:25 10° NW
NOAA 11 4.3 21:43:07 18° S 21:47:18 74° WSW 21:52:50 10° NNW
SL-08 RB Rocket 3.8 21:47:21 35° SE 21:49:07 62° ENE 21:53:38 10° N
ERS-1 Rocket 3.1 21:45:59 22° S 21:49:19 75° WSW 21:54:22 10° NNW
USA 245 4.0 21:46:31 28° SSE 21:49:24 71° ENE 21:54:05 10° N
ERBS 2.8 21:46:13 10° WSW 21:49:40 62° NW 21:53:07 10° NE
SPOT 5 2.9 21:48:23 33° SE 21:50:31 64° ENE 21:55:15 10° N
Cosmos 1025 Rocket 3.0 21:46:55 10° N 21:51:10 61° E 21:52:19 43° SE
Meteor 1-11 Rocket 4.2 21:45:27 10° SSW 21:51:17 65° WNW 21:57:02 10° N
BREEZE-M DEB 4.1 21:41:33 10° WNW 21:51:32 56° N 21:53:33 24° ENE
SL-8 R/B 4.3 21:51:44 10° WNW 21:56:27 53° N 21:59:23 22° ENE
Cosmos 1975 4.4 21:57:26 22° ENE 21:57:26 22° ENE 21:59:43 10° NE
Lacrosse 5 3.8 22:02:47 15° ENE 22:02:47 15° ENE 22:03:45 10° ENE
H-2A R/B 4.0 21:59:25 16° ENE 21:59:44 16° ENE 22:02:27 10° NNE
Helios 1B rocket 3.8 21:57:38 10° N 22:01:28 39° WNW 22:05:18 10° SW
Cosmos 220 Rocket 3.9 21:59:03 10° NNW 22:03:22 77° ENE 22:04:16 54° SE
ATLAS 3B R/B 3.0 21:58:43 10° NNW 22:05:23 54° NE 22:08:18 32° ESE
NOSS 2-3 (D) 3.7 22:01:55 10° SSW 22:06:34 75° ESE 22:12:04 10° NE
Cosmos 1110 Rocket 3.9 22:12:58 46° SSE 22:14:16 61° ESE 22:19:23 10° NNE
Cosmos 1892 Rocket 3.7 22:14:45 10° N 22:19:08 54° ENE 22:19:16 54° E
Cosmos 1536 4.5 22:15:59 10° SW 22:19:41 33° WNW 22:23:25 10° N
Lacrosse 5 rocket 3.2 22:22:01 10° W 22:24:34 18° SW 22:24:42 18° SW
SPOT 1/Viking Rocket 3.5 22:24:07 47° S 22:25:41 80° WSW 22:30:57 10° NNW
EXPRESS MD2 4.1 22:27:37 10° W 22:31:03 62° NNW 22:38:00 10° ENE
Cosmos 2237 4.4 22:32:15 48° E 22:32:15 48° E 22:37:29 10° NE
Cosmos 1331 Rocket 3.8 22:31:13 56° S 22:32:17 78° ESE 22:37:32 10° NNE
Cosmos 1244 Rocket 4.4 22:29:41 36° S 22:32:26 89° W 22:38:37 10° N
Nadezhda 1 Rocket 4.3 22:26:48 10° N 22:32:53 50° ENE 22:34:04 44° ESE
ATLAS 2AS CENTAUR R/B 2.9 22:25:20 10° SSW 22:33:03 83° SE 22:41:14 10° NE
Cosmos 2278 Rocket 3.9 22:30:36 10° N 22:34:53 21° NE 22:36:33 19° ENE
Cosmos 1544 Rocket 3.9 22:38:19 56° NE 22:38:19 56° NE 22:42:09 10° NNE
Cosmos 2322 Rocket 3.4 22:34:05 10° SW 22:39:28 42° WNW 22:44:53 10° NNE
Cosmos 2263 Rocket 3.2 22:37:04 10° NW 22:42:19 39° WSW 22:44:12 30° SW
Landsat 7 3.7 22:42:03 70° SSW 22:42:31 77° WSW 22:47:18 10° NNW
ARGOS 4.3 22:41:52 24° SW 22:44:17 36° W 22:49:13 10° NNW
SL-16 R/B 3.6 22:42:51 10° WSW 22:48:04 37° NW 22:53:19 10° NNE
Abrixas rocket 4.1 22:45:26 10° WNW 22:47:34 30° NW 22:47:34 30° NW
Cosmos 1455 Rocket 3.4 22:51:37 58° NNE 22:51:37 58° NNE 22:55:17 10° NNE
Cosmos 1844 Rocket 2.8 22:46:18 10° NNW 22:51:56 59° ENE 22:52:30 56° E
BREEZE-M DEB (TANK) 4.3 22:29:07 10° WSW 22:53:17 88° SSE 22:58:22 10° ENE
Cosmos 2322 3.6 22:52:32 56° SSW 22:53:49 89° WNW 22:59:33 10° NNE
Terra 1.8 22:57:52 77° W 22:57:52 77° W 23:02:37 10° NNW
SL-08 R/B 4.4 22:56:59 54° SSW 22:58:35 87° W 23:04:58 10° N
Cosmos 1503 Rocket 4.5 22:53:36 10° NNW 22:58:50 49° ENE 22:58:54 49° ENE
CENTAUR R/B 4.4 22:52:37 10° NNW 22:59:06 30° NNE 23:04:53 14° E
COSMOS 2428 3.0 23:00:05 53° ENE 23:00:05 53° ENE 23:04:57 10° NNE
Cosmos 1437 Rocket 4.3 23:02:59 30° NNE 23:02:59 30° NNE 23:05:10 10° NNE
Cosmos 2219 Rocket 3.4 23:05:33 30° ENE 23:05:33 30° ENE 23:08:52 10° NE
H-2A R/B 3.2 23:03:02 29° SW 23:04:16 33° W 23:08:49 10° NNW
SL-19 R/B 4.4 22:58:35 10° NNE 23:04:55 68° ESE 23:05:21 66° SE
Atlas Centaur 2 4.4 23:05:59 10° WSW 23:07:34 14° SW 23:07:34 14° SW
USA 215 4.3 23:07:52 19° ENE 23:12:03 41° NNE 23:18:04 10° NW
Spot 4 4.1 23:13:32 63° NNE 23:13:32 63° NNE 23:17:40 10° N
Cosmos 2333 Rocket 3.5 23:15:38 28° ENE 23:15:38 28° ENE 23:18:43 10° NE
Cosmos 1844 3.7 23:08:21 10° NNW 23:14:01 68° ENE 23:14:05 68° ENE
Cosmos 2360 Rocket 2.9 23:12:28 26° WSW 23:15:24 51° WNW 23:20:54 10° NNE
CZ-2C R/B 4.2 23:12:32 10° NE 23:15:27 24° ENE 23:15:27 24° ENE
Cosmos 724 4.4 23:13:04 10° NNW 23:18:56 61° NE 23:19:12 60° ENE
Cosmos 2333 4.2 23:25:26 71° NE 23:25:26 71° NE 23:30:28 10° NNE
Cosmos 1745 Rocket 4.1 23:25:32 56° SW 23:26:35 65° W 23:32:42 10° N
USA 238 DEB 3.8 23:21:33 10° NW 23:28:32 61° WSW 23:29:14 58° SSW
USA 238 3.8 23:21:39 10° NW 23:28:38 62° WSW 23:29:21 59° SSW
NOSS 3-2 (A) 3.9 23:22:21 10° NW 23:29:51 82° NE 23:31:22 62° SE
CZ-4 R/B 4.4 23:30:03 10° NNE 23:33:46 55° N 23:33:46 55° N
H-2A R/B 3.3 23:36:33 39° NW 23:36:33 39° NW 23:39:34 10° NNW
Meteor 1-21 4.3 23:31:58 10° NNW 23:37:18 70° WNW 23:37:18 70° WNW
Lacrosse 5 2.5 23:41:50 53° NW 23:42:03 53° NW 23:47:02 10° NE
Cosmos 2237 Rocket 3.4 23:44:54 30° ENE 23:44:54 30° ENE 23:48:03 10° NE
CZ-2C R/B 3.7 23:50:30 46° N 23:50:30 46° N 23:53:58 10° N
COSMOS 2455 4.3 23:45:29 10° NNW 23:50:38 28° NE 23:52:09 25° ENE
